Smyrna, TN

1:27 AM CST on November 22, 2017 (GMT -0600)
Smyrna

Weather History for KMQY - June, 2014

Change the Weather History Date:

Tuesday, June 24, 2014

  Actual Average Record
Temperature  
Mean Temperature 80 °F -  
Max Temperature 90 °F 83 °F 102 °F (2012)
Min Temperature 72 °F 67 °F 61 °F (2008)
Cooling Degree Days 15    
Growing Degree Days 30 (Base 50)    
Moisture  
Dew Point 72 °F    
Average Humidity 83    
Maximum Humidity 100    
Minimum Humidity 57    
Precipitation  
Precipitation 0.27 in - - ()
Sea Level Pressure  
Sea Level Pressure 29.98 in    
Wind  
Wind Speed 8 mph (SW)    
Max Wind Speed 25 mph    
Max Gust Speed 33 mph    
Visibility 8 miles    
Events Fog , Rain , Thunderstorm    
Averages and records for this station are not official NWS values.
T = Trace of Precipitation, MM = Missing Value Source: NWS Daily Summary

Daily Weather History Graph

Daily Weather History Graph

Search for Another Location

Airport or City:

Trip Planner

Search our weather history database for the weather conditions in past years. The results will help you decide how hot, cold, wet, or windy it might be!

Date:

Astronomy

Jun. 24, 2014 Rise Set
Actual Time 5:30 AM CDT 8:06 PM CDT
Civil Twilight 5:00 AM CDT 8:36 PM CDT
Nautical Twilight 4:22 AM CDT 9:14 PM CDT
Astronomical Twilight 3:40 AM CDT 9:56 PM CDT
Moon 3:33 AM CDT (6/24) 5:48 PM CDT (6/24)
Length of Visible Light 15h 36m
Length of Day
14h 36m
Waning Crescent, 7% of the Moon is Illuminated
Jun 24
Waning Crescent
Jun 27
New
Jul 5
First Quarter
Jul 12
Full
Jul 18
Last Quarter

Hourly Weather History & Observations

Time (CDT) Temp. Heat Index Dew Point Humidity Pressure Visibility Wind Dir Wind Speed Gust Speed Precip Events Conditions
12:56 AM 73.9 °F - 72.0 °F 93% 29.99 in 10.0 mi SSE 5.8 mph - N/A   Clear
1:56 AM 74.8 °F - 72.0 °F 91% 29.99 in 10.0 mi South 5.8 mph - N/A   Clear
2:56 AM 74.8 °F - 70.9 °F 87% 29.99 in 10.0 mi South 3.5 mph - N/A   Clear
3:56 AM 73.9 °F - 70.9 °F 90% 29.99 in 10.0 mi South 6.9 mph - N/A   Clear
4:56 AM 72.9 °F - 70.0 °F 91% 30.00 in 10.0 mi SSE 8.1 mph - N/A   Clear
5:56 AM 72.9 °F - 70.0 °F 91% 30.01 in 10.0 mi South 8.1 mph - N/A   Clear
6:56 AM 73.9 °F - 70.0 °F 87% 30.02 in 10.0 mi South 10.4 mph - N/A   Clear
7:56 AM 79.0 °F - 70.9 °F 76% 30.02 in 10.0 mi South 8.1 mph - N/A   Clear
8:56 AM 79.0 °F - 70.0 °F 74% 30.02 in 10.0 mi SW 9.2 mph - N/A   Scattered Clouds
9:36 AM 80.6 °F 83.9 °F 69.8 °F 70% 30.01 in 10.0 mi SW 11.5 mph 20.7 mph N/A   Mostly Cloudy
9:56 AM 79.9 °F - 70.0 °F 72% 30.01 in 10.0 mi SW 11.5 mph 19.6 mph N/A   Mostly Cloudy
10:56 AM 84.9 °F 90.7 °F 72.0 °F 65% 30.01 in 10.0 mi SSW 8.1 mph - N/A   Mostly Cloudy
11:20 AM 82.4 °F 86.3 °F 69.8 °F 66% 30.00 in 10.0 mi Variable 4.6 mph - N/A   Mostly Cloudy
11:56 AM 86.0 °F 92.2 °F 72.0 °F 63% 30.01 in 10.0 mi South 12.7 mph - N/A   Mostly Cloudy
12:19 PM 84.2 °F 89.6 °F 71.6 °F 66% 29.99 in 10.0 mi South 10.4 mph 19.6 mph N/A   Mostly Cloudy
12:56 PM 86.9 °F 92.5 °F 70.9 °F 59% 29.98 in 10.0 mi SSW 12.7 mph 18.4 mph N/A   Mostly Cloudy
1:46 PM 80.6 °F 85.4 °F 73.4 °F 79% 29.96 in 2.5 mi South 9.2 mph 19.6 mph 0.00 in Rain Light Rain
1:56 PM 77.0 °F - 72.9 °F 87% 29.97 in 7.0 mi South 9.2 mph - 0.00 in Rain Light Rain
3:56 PM 88.0 °F 93.8 °F 70.9 °F 57% 29.93 in 10.0 mi SW 11.5 mph 21.9 mph N/A   Scattered Clouds
4:56 PM 84.9 °F 89.4 °F 70.0 °F 61% 29.92 in 10.0 mi WSW 8.1 mph - N/A   Mostly Cloudy
5:17 PM 78.8 °F - 71.6 °F 78% 29.93 in 2.0 mi WSW 25.3 mph 33.4 mph 0.07 in Rain Heavy Rain
5:19 PM 75.2 °F - 71.6 °F 89% 29.94 in 0.8 mi West 20.7 mph 33.4 mph 0.19 in Rain Light Rain
5:21 PM 75.2 °F - 71.6 °F 89% 29.93 in 0.5 mi West 12.7 mph 31.1 mph 0.22 in Fog , Rain , Thunderstorm Light Thunderstorms and Rain
5:30 PM 73.4 °F - 71.6 °F 94% 29.92 in 1.2 mi WSW 6.9 mph - 0.24 in Rain , Thunderstorm Light Thunderstorms and Rain
5:45 PM 73.4 °F - 73.4 °F 100% 29.91 in 10.0 mi WNW 3.5 mph - 0.25 in Rain Light Rain
5:56 PM 74.8 °F - 73.9 °F 97% 29.93 in 10.0 mi WNW 5.8 mph - 0.25 in Rain Light Rain
6:56 PM 79.9 °F - 73.9 °F 82% 29.94 in 10.0 mi SW 4.6 mph - 0.00 in   Scattered Clouds
7:56 PM 75.9 °F - 72.0 °F 87% 29.95 in 10.0 mi SW 8.1 mph - N/A   Scattered Clouds
8:56 PM 74.8 °F - 72.0 °F 91% 29.96 in 10.0 mi SW 8.1 mph - N/A   Mostly Cloudy
9:56 PM 74.8 °F - 72.9 °F 94% 29.98 in 10.0 mi SW 5.8 mph - N/A   Overcast
10:26 PM 75.2 °F - 73.4 °F 94% 29.97 in 10.0 mi SW 5.8 mph - N/A   Overcast
10:56 PM 74.8 °F - 72.0 °F 91% 29.99 in 10.0 mi West 9.2 mph - N/A   Overcast
11:20 PM 73.4 °F - 73.4 °F 100% 29.98 in 2.5 mi West 9.2 mph - 0.00 in Rain Light Rain
11:29 PM 73.4 °F - 73.4 °F 100% 29.98 in 6.0 mi West 12.7 mph - 0.01 in Rain Light Rain
11:56 PM 72.9 °F - 72.9 °F 100% 30.00 in 9.0 mi West 8.1 mph - 0.02 in   Overcast